contact:dominique.lefevre@mio.osupytheas.fr, maurice.libes@osupytheas.fr, didier.mallarino@osupytheas.fr
Project:EMSO http://www.emso-fr.org/EMSO-France
Depth: 2436.0 m
Title:EMSO Ligure Ouest : Data MII capteur MICROCAT
DateTime_Computer,Latitude,Longitude,Temperature,Conductivity,Pressure,DateTime_Instrument
DateTime_Computer,Latitude,Longitude,degC,S m-1,dbar,DateTime_Instrument
2023-03-23T00:02:13Z,42.805,6.029,13.3017,4.60092,2470.553,2023-3-23T02:04:57Z
2023-03-23T00:05:16Z,42.805,6.029,13.3021,4.60094,2470.577,2023-3-23T02:08:00Z
2023-03-23T00:08:19Z,42.805,6.029,13.3023,4.60097,2470.6,2023-3-23T02:11:03Z
2023-03-23T00:11:22Z,42.805,6.029,13.3025,4.60101,2470.577,2023-3-23T02:14:06Z
2023-03-23T00:14:25Z,42.805,6.029,13.3018,4.60089,2470.553,2023-3-23T02:17:09Z
2023-03-23T00:17:28Z,42.805,6.029,13.3019,4.60097,2470.577,2023-3-23T02:20:12Z
2023-03-23T00:20:31Z,42.805,6.029,13.3022,4.60098,2470.577,2023-3-23T02:23:15Z
2023-03-23T13:58:08Z,42.805,6.029,13.3019,4.60075,2470.47,2023-3-23T16:00:52Z
2023-03-23T14:01:11Z,42.805,6.029,13.3014,4.60075,2470.46,2023-3-23T16:03:56Z
2023-03-23T14:04:15Z,42.805,6.029,13.3016,4.60075,2470.52,2023-3-23T16:06:59Z
2023-03-23T14:07:18Z,42.805,6.029,13.3015,4.60077,2470.483,2023-3-23T16:10:02Z
2023-03-23T14:10:21Z,42.805,6.029,13.3013,4.60076,2470.474,2023-3-23T16:13:05Z
2023-03-23T14:13:24Z,42.805,6.029,13.3013,4.60078,2470.437,2023-3-23T16:16:08Z
2023-03-23T14:16:27Z,42.805,6.029,13.3014,4.60077,2470.46,2023-3-23T16:19:11Z
2023-03-23T14:19:30Z,42.805,6.029,13.3017,4.60077,2470.483,2023-3-23T16:22:14Z
2023-03-23T14:22:33Z,42.805,6.029,13.3019,4.60076,2470.46,2023-3-23T16:25:17Z
2023-03-23T14:25:36Z,42.805,6.029,13.3016,4.60077,2470.45,2023-3-23T16:28:20Z
2023-03-23T14:28:39Z,42.805,6.029,13.3013,4.60077,2470.483,2023-3-23T16:31:23Z
2023-03-23T14:31:42Z,42.805,6.029,13.3016,4.60077,2470.46,2023-3-23T16:34:26Z
2023-03-23T14:34:45Z,42.805,6.029,13.3018,4.60077,2470.483,2023-3-23T16:37:30Z
2023-03-23T14:37:49Z,42.805,6.029,13.3017,4.60076,2470.46,2023-3-23T16:40:33Z
2023-03-23T14:40:52Z,42.805,6.029,13.3014,4.60077,2470.46,2023-3-23T16:43:36Z
2023-03-23T14:43:55Z,42.805,6.029,13.3015,4.60077,2470.483,2023-3-23T16:46:39Z
2023-03-23T14:46:58Z,42.805,6.029,13.3016,4.60079,2470.45,2023-3-23T16:49:42Z
2023-03-23T14:50:01Z,42.805,6.029,13.3013,4.60077,2470.437,2023-3-23T16:52:45Z
2023-03-23T14:53:04Z,42.805,6.029,13.3013,4.60075,2470.45,2023-3-23T16:55:48Z
2023-03-23T14:56:07Z,42.805,6.029,13.3015,4.60076,2470.45,2023-3-23T16:58:51Z
2023-03-23T14:59:10Z,42.805,6.029,13.3014,4.60076,2470.46,2023-3-23T17:01:54Z
2023-03-23T15:02:13Z,42.805,6.029,13.3018,4.60076,2470.45,2023-3-23T17:04:57Z
2023-03-23T15:05:16Z,42.805,6.029,13.3016,4.60076,2470.46,2023-3-23T17:08:00Z
2023-03-23T15:08:19Z,42.805,6.029,13.3015,4.60075,2470.437,2023-3-23T17:11:03Z
2023-03-23T15:11:22Z,42.805,6.029,13.3015,4.60076,2470.46,2023-3-23T17:14:07Z
2023-03-23T15:14:26Z,42.805,6.029,13.3015,4.60077,2470.437,2023-3-23T17:17:10Z
2023-03-23T15:17:29Z,42.805,6.029,13.3015,4.60076,2470.437,2023-3-23T17:20:13Z
2023-03-23T15:20:32Z,42.805,6.029,13.3014,4.60074,2470.46,2023-3-23T17:23:16Z
2023-03-23T15:23:35Z,42.805,6.029,13.3020,4.60076,2470.413,2023-3-23T17:26:19Z
2023-03-23T15:26:38Z,42.805,6.029,13.3016,4.60075,2470.497,2023-3-23T17:29:22Z
2023-03-23T15:29:41Z,42.805,6.029,13.3015,4.60076,2470.46,2023-3-23T17:32:25Z
2023-03-23T15:32:44Z,42.805,6.029,13.3015,4.60075,2470.446,2023-3-23T17:35:28Z
2023-03-23T15:35:47Z,42.805,6.029,13.3013,4.60077,2470.46,2023-3-23T17:38:31Z
2023-03-23T15:38:50Z,42.805,6.029,13.3015,4.60076,2470.483,2023-3-23T17:41:34Z
2023-03-23T15:41:53Z,42.805,6.029,13.3015,4.60076,2470.45,2023-3-23T17:44:37Z
2023-03-23T15:44:56Z,42.805,6.029,13.3011,4.60077,2470.46,2023-3-23T17:47:41Z
2023-03-23T15:47:59Z,42.805,6.029,13.3014,4.60077,2470.413,2023-3-23T17:50:44Z
2023-03-23T15:51:03Z,42.805,6.029,13.3015,4.60077,2470.474,2023-3-23T17:53:47Z
2023-03-23T15:54:06Z,42.805,6.029,13.3012,4.60076,2470.46,2023-3-23T17:56:50Z
2023-03-23T15:57:09Z,42.805,6.029,13.3012,4.60076,2470.437,2023-3-23T17:59:53Z
2023-03-23T16:00:12Z,42.805,6.029,13.3015,4.60075,2470.474,2023-3-23T18:02:56Z
2023-03-23T16:03:15Z,42.805,6.029,13.3016,4.60075,2470.474,2023-3-23T18:05:59Z
2023-03-23T16:06:18Z,42.805,6.029,13.3014,4.60075,2470.46,2023-3-23T18:09:02Z
2023-03-23T16:09:21Z,42.805,6.029,13.3012,4.60076,2470.46,2023-3-23T18:12:05Z
2023-03-23T16:12:24Z,42.805,6.029,13.3014,4.60076,2470.437,2023-3-23T18:15:08Z
2023-03-23T16:15:27Z,42.805,6.029,13.3011,4.60075,2470.483,2023-3-23T18:18:11Z
2023-03-23T16:18:30Z,42.805,6.029,13.3014,4.60075,2470.474,2023-3-23T18:21:14Z
2023-03-23T16:21:33Z,42.805,6.029,13.3014,4.60075,2470.437,2023-3-23T18:24:18Z
2023-03-23T16:24:36Z,42.805,6.029,13.3013,4.60074,2470.46,2023-3-23T18:27:21Z
2023-03-23T16:27:40Z,42.805,6.029,13.3015,4.60077,2470.46,2023-3-23T18:30:24Z
2023-03-23T16:30:43Z,42.805,6.029,13.3014,4.60075,2470.507,2023-3-23T18:33:27Z
2023-03-23T16:33:46Z,42.805,6.029,13.3013,4.60078,2470.46,2023-3-23T18:36:30Z
2023-03-23T16:36:49Z,42.805,6.029,13.3013,4.60074,2470.474,2023-3-23T18:39:33Z
2023-03-23T16:39:52Z,42.805,6.029,13.3017,4.60077,2470.46,2023-3-23T18:42:36Z
2023-03-23T16:42:55Z,42.805,6.029,13.3015,4.60076,2470.474,2023-3-23T18:45:39Z
2023-03-23T16:45:58Z,42.805,6.029,13.3014,4.60076,2470.507,2023-3-23T18:48:42Z
2023-03-23T16:49:01Z,42.805,6.029,13.3013,4.60076,2470.53,2023-3-23T18:51:45Z
2023-03-23T16:52:04Z,42.805,6.029,13.3015,4.60076,2470.53,2023-3-23T18:54:48Z
2023-03-23T16:55:07Z,42.805,6.029,13.3014,4.60077,2470.507,2023-3-23T18:57:52Z
2023-03-23T16:58:10Z,42.805,6.029,13.3014,4.60077,2470.507,2023-3-23T19:00:55Z
2023-03-23T17:01:14Z,42.805,6.029,13.3014,4.60077,2470.507,2023-3-23T19:03:58Z
2023-03-23T17:04:17Z,42.805,6.029,13.3016,4.60077,2470.507,2023-3-23T19:07:01Z
2023-03-23T17:07:20Z,42.805,6.029,13.3017,4.60077,2470.544,2023-3-23T19:10:04Z
2023-03-23T17:10:23Z,42.805,6.029,13.3011,4.60077,2470.507,2023-3-23T19:13:07Z
2023-03-23T17:13:26Z,42.805,6.029,13.3015,4.60077,2470.544,2023-3-23T19:16:10Z
2023-03-23T17:16:29Z,42.805,6.029,13.3015,4.60078,2470.544,2023-3-23T19:19:13Z
2023-03-23T17:19:32Z,42.805,6.029,13.3014,4.60077,2470.53,2023-3-23T19:22:16Z
2023-03-23T17:22:35Z,42.805,6.029,13.3016,4.60077,2470.553,2023-3-23T19:25:19Z
2023-03-23T17:25:38Z,42.805,6.029,13.3015,4.60078,2470.507,2023-3-23T19:28:22Z
2023-03-23T17:28:41Z,42.805,6.029,13.3011,4.60077,2470.53,2023-3-23T19:31:25Z
2023-03-23T17:31:43Z,42.805,6.029,13.3016,4.60077,2470.553,2023-3-23T19:34:27Z
2023-03-23T17:34:46Z,42.805,6.029,13.3014,4.60077,2470.53,2023-3-23T19:37:30Z
2023-03-23T17:37:49Z,42.805,6.029,13.3017,4.60077,2470.577,2023-3-23T19:40:33Z
2023-03-23T17:40:52Z,42.805,6.029,13.3015,4.60078,2470.53,2023-3-23T19:43:36Z
2023-03-23T17:43:55Z,42.805,6.029,13.3014,4.60078,2470.553,2023-3-23T19:46:39Z
2023-03-23T17:46:58Z,42.805,6.029,13.3016,4.60078,2470.567,2023-3-23T19:49:42Z
2023-03-23T17:50:01Z,42.805,6.029,13.3014,4.60077,2470.567,2023-3-23T19:52:45Z
2023-03-23T17:53:04Z,42.805,6.029,13.3014,4.60077,2470.577,2023-3-23T19:55:48Z
2023-03-23T17:56:07Z,42.805,6.029,13.3018,4.60078,2470.553,2023-3-23T19:58:52Z
2023-03-23T17:59:10Z,42.805,6.029,13.3018,4.60079,2470.553,2023-3-23T20:01:55Z
2023-03-23T18:02:13Z,42.805,6.029,13.3015,4.60079,2470.591,2023-3-23T20:04:58Z
2023-03-23T18:05:17Z,42.805,6.029,13.3015,4.60077,2470.591,2023-3-23T20:08:01Z
2023-03-23T18:08:20Z,42.805,6.029,13.3016,4.60077,2470.6,2023-3-23T20:11:04Z
2023-03-23T18:11:23Z,42.805,6.029,13.3015,4.60077,2470.6,2023-3-23T20:14:07Z
2023-03-23T18:14:26Z,42.805,6.029,13.3015,4.60079,2470.614,2023-3-23T20:17:10Z
2023-03-23T18:17:29Z,42.805,6.029,13.3015,4.60078,2470.591,2023-3-23T20:20:13Z
2023-03-23T18:20:32Z,42.805,6.029,13.3013,4.60079,2470.6,2023-3-23T20:23:16Z
2023-03-23T18:23:35Z,42.805,6.029,13.3014,4.60077,2470.624,2023-3-23T20:26:19Z
2023-03-23T18:26:38Z,42.805,6.029,13.3013,4.60077,2470.624,2023-3-23T20:29:22Z
2023-03-23T18:29:41Z,42.805,6.029,13.3014,4.60078,2470.6,2023-3-23T20:32:25Z
2023-03-23T18:32:44Z,42.805,6.029,13.3015,4.60077,2470.624,2023-3-23T20:35:28Z
2023-03-23T18:35:47Z,42.805,6.029,13.3019,4.60078,2470.577,2023-3-23T20:38:32Z
2023-03-23T18:38:50Z,42.805,6.029,13.3014,4.60077,2470.614,2023-3-23T20:41:35Z
2023-03-23T18:41:54Z,42.805,6.029,13.3015,4.60076,2470.646,2023-3-23T20:44:38Z
2023-03-23T18:44:57Z,42.805,6.029,13.3014,4.60077,2470.646,2023-3-23T20:47:41Z
2023-03-23T18:48:00Z,42.805,6.029,13.3018,4.60079,2470.661,2023-3-23T20:50:44Z
2023-03-23T18:51:03Z,42.805,6.029,13.3013,4.60077,2470.646,2023-3-23T20:53:47Z
2023-03-23T18:54:06Z,42.805,6.029,13.3009,4.60077,2470.637,2023-3-23T20:56:50Z
2023-03-23T18:57:09Z,42.805,6.029,13.3016,4.60079,2470.646,2023-3-23T20:59:53Z
2023-03-23T19:00:12Z,42.805,6.029,13.3015,4.60077,2470.646,2023-3-23T21:02:56Z
2023-03-23T19:03:15Z,42.805,6.029,13.3014,4.60077,2470.67,2023-3-23T21:05:59Z
2023-03-23T19:06:18Z,42.805,6.029,13.3014,4.60076,2470.646,2023-3-23T21:09:02Z
2023-03-23T19:09:21Z,42.805,6.029,13.3014,4.60079,2470.633,2023-3-23T21:12:06Z
2023-03-23T19:12:24Z,42.805,6.029,13.3015,4.60077,2470.646,2023-3-23T21:15:09Z
2023-03-23T19:15:27Z,42.805,6.029,13.3015,4.60077,2470.646,2023-3-23T21:18:12Z
2023-03-23T19:18:31Z,42.805,6.029,13.3016,4.60076,2470.646,2023-3-23T21:21:15Z
2023-03-23T19:21:34Z,42.805,6.029,13.3014,4.60076,2470.661,2023-3-23T21:24:18Z
2023-03-23T19:24:37Z,42.805,6.029,13.3016,4.60076,2470.646,2023-3-23T21:27:21Z
2023-03-23T19:27:40Z,42.805,6.029,13.3014,4.60075,2470.693,2023-3-23T21:30:24Z
2023-03-23T19:30:43Z,42.805,6.029,13.3014,4.60076,2470.684,2023-3-23T21:33:27Z
2023-03-23T19:33:46Z,42.805,6.029,13.3014,4.60075,2470.67,2023-3-23T21:36:30Z
2023-03-23T19:36:49Z,42.805,6.029,13.3014,4.60075,2470.646,2023-3-23T21:39:33Z
2023-03-23T19:39:52Z,42.805,6.029,13.3015,4.60076,2470.693,2023-3-23T21:42:36Z
2023-03-23T19:42:55Z,42.805,6.029,13.3013,4.60076,2470.693,2023-3-23T21:45:40Z
2023-03-23T19:45:58Z,42.805,6.029,13.3013,4.60077,2470.646,2023-3-23T21:48:43Z
2023-03-23T19:49:01Z,42.805,6.029,13.3015,4.60076,2470.684,2023-3-23T21:51:46Z
2023-03-23T19:52:05Z,42.805,6.029,13.3014,4.60077,2470.693,2023-3-23T21:54:49Z
2023-03-23T19:55:08Z,42.805,6.029,13.3014,4.60078,2470.73,2023-3-23T21:57:52Z
2023-03-23T19:58:11Z,42.805,6.029,13.3012,4.60075,2470.67,2023-3-23T22:00:55Z
2023-03-23T20:01:14Z,42.805,6.029,13.3015,4.60077,2470.717,2023-3-23T22:03:58Z
2023-03-23T20:04:17Z,42.805,6.029,13.3014,4.60077,2470.67,2023-3-23T22:07:01Z
2023-03-23T20:07:20Z,42.805,6.029,13.3017,4.60077,2470.646,2023-3-23T22:10:04Z
2023-03-23T20:10:23Z,42.805,6.029,13.3015,4.60076,2470.684,2023-3-23T22:13:07Z
2023-03-23T20:13:26Z,42.805,6.029,13.3015,4.60077,2470.707,2023-3-23T22:16:10Z
2023-03-23T20:16:29Z,42.805,6.029,13.3012,4.60077,2470.684,2023-3-23T22:19:13Z
2023-03-23T20:19:32Z,42.805,6.029,13.3015,4.60076,2470.684,2023-3-23T22:22:17Z
2023-03-23T20:22:35Z,42.805,6.029,13.3015,4.60077,2470.707,2023-3-23T22:25:20Z
2023-03-23T20:25:38Z,42.805,6.029,13.3013,4.60076,2470.67,2023-3-23T22:28:23Z
2023-03-23T20:28:42Z,42.805,6.029,13.3014,4.60076,2470.707,2023-3-23T22:31:26Z
2023-03-23T20:31:45Z,42.805,6.029,13.3017,4.60078,2470.693,2023-3-23T22:34:29Z
2023-03-23T20:34:48Z,42.805,6.029,13.3017,4.60076,2470.707,2023-3-23T22:37:32Z
2023-03-23T20:37:51Z,42.805,6.029,13.3017,4.60076,2470.693,2023-3-23T22:40:35Z
2023-03-23T20:40:54Z,42.805,6.029,13.3017,4.60076,2470.693,2023-3-23T22:43:38Z
2023-03-23T20:43:57Z,42.805,6.029,13.3016,4.60076,2470.707,2023-3-23T22:46:41Z
2023-03-23T20:47:00Z,42.805,6.029,13.3019,4.60077,2470.67,2023-3-23T22:49:44Z
2023-03-23T20:50:03Z,42.805,6.029,13.3015,4.60076,2470.693,2023-3-23T22:52:47Z
2023-03-23T20:53:06Z,42.805,6.029,13.3013,4.60077,2470.67,2023-3-23T22:55:50Z
2023-03-23T20:56:09Z,42.805,6.029,13.3015,4.60075,2470.67,2023-3-23T22:58:54Z
2023-03-23T20:59:12Z,42.805,6.029,13.3014,4.60075,2470.67,2023-3-23T23:01:57Z
2023-03-23T21:02:15Z,42.805,6.029,13.3016,4.60077,2470.67,2023-3-23T23:05:00Z
2023-03-23T21:05:19Z,42.805,6.029,13.3013,4.60075,2470.684,2023-3-23T23:08:03Z
2023-03-23T21:08:22Z,42.805,6.029,13.3016,4.60076,2470.67,2023-3-23T23:11:06Z
2023-03-23T21:11:25Z,42.805,6.029,13.3014,4.60077,2470.693,2023-3-23T23:14:09Z
2023-03-23T21:14:28Z,42.805,6.029,13.3014,4.60076,2470.693,2023-3-23T23:17:12Z
2023-03-23T21:17:31Z,42.805,6.029,13.3014,4.60076,2470.67,2023-3-23T23:20:15Z
2023-03-23T21:20:34Z,42.805,6.029,13.3016,4.60076,2470.693,2023-3-23T23:23:18Z
2023-03-23T21:23:37Z,42.805,6.029,13.3011,4.60077,2470.693,2023-3-23T23:26:21Z
2023-03-23T21:26:40Z,42.805,6.029,13.3016,4.60075,2470.646,2023-3-23T23:29:24Z
2023-03-23T21:29:43Z,42.805,6.029,13.3014,4.60075,2470.679,2023-3-23T23:32:27Z
2023-03-23T21:32:46Z,42.805,6.029,13.3014,4.60075,2470.67,2023-3-23T23:35:31Z
2023-03-23T21:35:49Z,42.805,6.029,13.3010,4.60077,2470.67,2023-3-23T23:38:34Z
2023-03-23T21:38:53Z,42.805,6.029,13.3015,4.60075,2470.67,2023-3-23T23:41:37Z
2023-03-23T21:41:56Z,42.805,6.029,13.3012,4.60075,2470.646,2023-3-23T23:44:40Z
2023-03-23T21:44:59Z,42.805,6.029,13.3014,4.60075,2470.67,2023-3-23T23:47:43Z
2023-03-23T21:48:02Z,42.805,6.029,13.3015,4.60077,2470.693,2023-3-23T23:50:46Z
2023-03-23T21:51:05Z,42.805,6.029,13.3014,4.60075,2470.67,2023-3-23T23:53:49Z
2023-03-23T21:54:08Z,42.805,6.029,13.3019,4.60076,2470.661,2023-3-23T23:56:52Z
2023-03-23T21:57:11Z,42.805,6.029,13.3017,4.60076,2470.661,2023-3-23T23:59:55Z
2023-03-23T22:00:14Z,42.805,6.029,13.3016,4.60074,2470.646,2023-3-24T00:02:58Z
2023-03-23T22:03:17Z,42.805,6.029,13.3017,4.60075,2470.646,2023-3-24T00:06:01Z
2023-03-23T22:06:20Z,42.805,6.029,13.3014,4.60076,2470.646,2023-3-24T00:09:04Z
2023-03-23T22:09:23Z,42.805,6.029,13.3014,4.60070,2470.661,2023-3-24T00:12:08Z
2023-03-23T22:12:26Z,42.805,6.029,13.3015,4.60076,2470.646,2023-3-24T00:15:11Z
2023-03-23T22:15:29Z,42.805,6.029,13.3014,4.60077,2470.637,2023-3-24T00:18:14Z
2023-03-23T22:18:33Z,42.805,6.029,13.3011,4.60076,2470.67,2023-3-24T00:21:17Z
2023-03-23T22:21:36Z,42.805,6.029,13.3017,4.60075,2470.646,2023-3-24T00:24:20Z
2023-03-23T22:24:39Z,42.805,6.029,13.3014,4.60076,2470.67,2023-3-24T00:27:23Z
2023-03-23T22:27:42Z,42.805,6.029,13.3014,4.60075,2470.624,2023-3-24T00:30:26Z
2023-03-23T22:30:45Z,42.805,6.029,13.3014,4.60075,2470.717,2023-3-24T00:33:29Z
2023-03-23T22:33:48Z,42.805,6.029,13.3015,4.60075,2470.624,2023-3-24T00:36:32Z
2023-03-23T22:36:51Z,42.805,6.029,13.3013,4.60075,2470.6,2023-3-24T00:39:35Z
2023-03-23T22:39:54Z,42.805,6.029,13.3014,4.60075,2470.661,2023-3-24T00:42:38Z
2023-03-23T22:42:57Z,42.805,6.029,13.3020,4.60076,2470.6,2023-3-24T00:45:41Z
2023-03-23T22:46:00Z,42.805,6.029,13.3012,4.60075,2470.624,2023-3-24T00:48:45Z
2023-03-23T22:49:03Z,42.805,6.029,13.3015,4.60074,2470.624,2023-3-24T00:51:48Z
2023-03-23T22:52:06Z,42.805,6.029,13.3014,4.60075,2470.661,2023-3-24T00:54:51Z
2023-03-23T22:55:10Z,42.805,6.029,13.3014,4.60074,2470.646,2023-3-24T00:57:54Z
2023-03-23T22:58:13Z,42.805,6.029,13.3013,4.60075,2470.637,2023-3-24T01:00:57Z
2023-03-23T23:01:16Z,42.805,6.029,13.3017,4.60074,2470.637,2023-3-24T01:04:00Z
2023-03-23T23:04:19Z,42.805,6.029,13.3014,4.60076,2470.577,2023-3-24T01:07:03Z
2023-03-23T23:07:22Z,42.805,6.029,13.3016,4.60074,2470.633,2023-3-24T01:10:06Z
2023-03-23T23:10:25Z,42.805,6.029,13.3017,4.60075,2470.6,2023-3-24T01:13:09Z
2023-03-23T23:13:28Z,42.805,6.029,13.3014,4.60074,2470.624,2023-3-24T01:16:12Z
2023-03-23T23:16:31Z,42.805,6.029,13.3015,4.60074,2470.6,2023-3-24T01:19:15Z
2023-03-23T23:19:34Z,42.805,6.029,13.3014,4.60074,2470.624,2023-3-24T01:22:18Z
2023-03-23T23:22:37Z,42.805,6.029,13.3015,4.60074,2470.614,2023-3-24T01:25:22Z
2023-03-23T23:25:40Z,42.805,6.029,13.3017,4.60074,2470.614,2023-3-24T01:28:25Z
2023-03-23T23:28:43Z,42.805,6.029,13.3017,4.60075,2470.6,2023-3-24T01:31:28Z
2023-03-23T23:31:46Z,42.805,6.029,13.3015,4.60075,2470.6,2023-3-24T01:34:31Z
2023-03-23T23:34:50Z,42.805,6.029,13.3015,4.60075,2470.614,2023-3-24T01:37:34Z
2023-03-23T23:37:53Z,42.805,6.029,13.3011,4.60075,2470.577,2023-3-24T01:40:37Z
2023-03-23T23:40:56Z,42.805,6.029,13.3014,4.60074,2470.61,2023-3-24T01:43:40Z
2023-03-23T23:43:59Z,42.805,6.029,13.3015,4.60076,2470.577,2023-3-24T01:46:43Z
2023-03-23T23:47:02Z,42.805,6.029,13.3015,4.60075,2470.6,2023-3-24T01:49:46Z
2023-03-23T23:50:05Z,42.805,6.029,13.3014,4.60074,2470.614,2023-3-24T01:52:49Z
2023-03-23T23:53:08Z,42.805,6.029,13.3015,4.60075,2470.591,2023-3-24T01:55:52Z
2023-03-23T23:56:11Z,42.805,6.029,13.3016,4.60077,2470.624,2023-3-24T01:58:55Z
2023-03-23T23:59:14Z,42.805,6.029,13.3012,4.60077,2470.577,2023-3-24T02:01:58Z
